sat.trackr.live / text

‹ back to catalog

STARLINK-30980

NORAD 58476 · 2023-186D

PAYLOAD ACTIVE UNKNOWN

§ Identity

Operator
Country
US
Launch date
2023-12-03
Launch site
AFETR
Launch vehicle
Mass (kg)
RCS (m²)

Purposes: comms

External: N2YO · Heavens-Above · Gunter

§ Orbital elements

Epoch: 2026-09-20T16:07:49.067616Z

Period
94.27 min
Inclination
43.0010°
Eccentricity
0.0002053
Mean motion
15.27573650 rev/d
Perigee alt
481.7 km
Apogee alt
484.5 km
Semi-major
6,861.2 km
B*
4.3983e-4
RAAN
46.1179°
Arg perigee
269.0620°
Mean anomaly
90.9996°
Rev number
15,567

§ Raw data

STARLINK-309801 58476U 23186D   26263.67209569  .00011858  00000+0  43983-3 0  99952 58476  43.0010  46.1179 0002053 269.0620  90.9996 15.27573650155670

JSON: /api/v1/satellites/58476 · /tle

For live sub-satellite position, see the globe view (requires WebGL).

§ Visibility from observer

Set your observer location to see the next 7 days of passes ≥ 10°. The values pass through the URL so the page stays shareable.

No JS? Fill the form by hand. The geolocation button needs JavaScript.